Regional Weather Roundup
Issued by NWS New Orleans/Baton Rouge, LA

Home | Current Version | Previous Version | Text Only | Print | Product List | Glossary On
Versions: 1 2 3 4 5 6 7 8 9 10 11 12 13 14 15 16 17 18 19 20 21 22 23 24 25 26 27 28 29 30 31 32 33 34 35 36 37 38 39 40 41 42 43 44 45 46 47 48 49 50
792
ASUS44 KLIX 190310
RWRLIX
NEW ORLEANS REGIONAL WEATHER ROUNDUP
NATIONAL WEATHER SERVICE NEW ORLEANS LA
900 PM CST THU DEC 18 2014

NOTE: "FAIR" INDICATES FEW OR NO CLOUDS BELOW 12,000 FEET WITH NO
      SIGNIFICANT WEATHER AND/OR OBSTRUCTIONS TO VISIBILITY.
      SKY/WX - SKY CONDITION AND SIGNIFICANT WEATHER.
      TMP - AIR TEMPERATURE.     DP    - DEWPOINT TEMPERATURE.
      RH  - RELATIVE HUMIDITY.   PRES  - PRESSURE.
      HI  - HEAT INDEX.          WCI   - WIND CHILL INDEX.

*  THESE STATIONS ARE NOT NWS OR FAA STATIONS AND ARE NOT UNDER
   NWS QUALITY CONTROL.

LAZ038-040-048-061>063-065>067-069-190400-
SOUTHEAST LOUISIANA

CITY           SKY/WX    TMP DP  RH WIND       PRES   REMARKS
N.O. AUDUBON     N/A     60  55  84 MISG        N/A
N.O. INTL ARPT LGT RAIN  59  54  83 NE8       30.14S
N.O. LAKEFRONT CLOUDY    59  53  80 NE12      30.14S
N.O. DOWNTOWN* MOCLDY    57  50  77 NE5       30.14S
SLIDELL        CLOUDY    59  53  80 NE3       30.14S
BATON ROUGE    CLOUDY    56  54  93 NE6       30.13R
BOOTHVILLE     CLOUDY    61  58  90 CALM      30.13S
BELLE CHASSE   CLOUDY    57  55  93 NE3       30.14R
BOGALUSA*        N/A     54  50  89 NE3       30.17S
GALLIANO*      LGT RAIN  63  60  92 MISG      30.13R
NEW ROADS*     CLOUDY    54  54  98 CALM      30.14S
GONZALES*      CLOUDY    59  57  92 E3        30.12S
HAMMOND*       NOT AVBL
HOUMA*         CLOUDY    60  59  97 NE9       30.12S FOG
PORT FOURCHON* NOT AVBL

$$

MSZ070-080>082-190400-
SOUTHERN MISSISSIPPI

CITY           SKY/WX    TMP DP  RH WIND       PRES   REMARKS
MCCOMB         CLOUDY    51  49  92 VRB3      30.16R
GULFPORT       CLOUDY    59  50  72 NE3       30.15R
BILOXI         CLOUDY    59  50  72 E6        30.15S
PASCAGOULA     CLOUDY    57  48  72 NE5       30.16S
STENNIS ARPT*  CLOUDY    57  48  72 CALM      30.14S

$$

COASTAL OBSERVATIONS
LAKE AND NEARSHORE STATIONS

STATION/POSITION TIME  TEMP    WIND        PRES    WAVE
                       AIR SEA DIR/SP/G            HT/PER
                 (UTC) (F)     (DEG/KT/KT) (MB)    (FT/S)
PASCAGOULA       0300   59      50/  5/  7 1020.3
WAVELAND YACHT   0300   58      60/  6/  7 1020.1
GRAND ISLE       0300   64 62  100/  4/  5 1020.1
SOUTHWEST PASS   0300   64                 1019.7
NEW CANAL        0300   58 58   70/ 11/ 12 1020.7
SHELL BEACH      0300   59 60   70/ 10/ 12 1020.1

OFFSHORE STATIONS

STATION/POSITION TIME  TEMP    WIND        PRES    WAVE
                       AIR SEA DIR/SP/G            HT/PER
                 (UTC) (F)     (DEG/KT/KT) (MB)    (FT/S)
64 S DAUPHIN ISL 0300   69 75  110/  6/  8 1020.1    1/ 3

$$




USA.gov is the U.S. government's official web portal to all federal, state and local government web resources and services.